Hourly Data Report for June 03, 2020

TORONTO CITY
ONTARIO
Current Station Operator: ECCC - MSC

43°40'00.000" N
79°24'00.000" W
112.50 m
6158355
71508
XTO

Download Data

Hourly Data (June 2020)
Hourly Data Report for June 3, 2020
TIME
LST
Temp Definition
°C
Dew Point Definition
°C
Rel Hum Definition
%
Precip. Amount Definition
mm

Wind Dir Definition
10's deg

Wind Spd Definition
km/h
Visibility Definition
km
Stn Press Definition
kPa
Hmdx Definition


Wind Chill Definition


Weather Definition


00:00 15.2 11.3 77 0.0       99.14     LegendNANA
01:00 14.9 10.9 77 0.0       99.11     LegendNANA
02:00 14.3 11.2 82 0.0       99.08     LegendNANA
03:00 14.2 11.5 84 0.0       99.02     LegendNANA
04:00 15.0 12.2 84 0.0       99.09     LegendNANA
05:00 14.9 12.5 86 0.0       99.07     LegendNANA
06:00 16.3 14.3 88 1.7       99.15     LegendNANA
07:00 16.9 14.8 87 0.6       98.84     LegendNANA
08:00 16.4 13.8 85 0.2       98.98     LegendNANA
09:00 16.8 14.9 88 0.0       99.02     LegendNANA
10:00 21.5 16.5 74 0.0       99.02 26   LegendNANA
11:00 22.7 15.9 65 0.0       98.96 27   LegendNANA
12:00 24.9 15.5 56 0.0       98.96 29   LegendNANA
13:00 25.6 15.5 54 0.0       98.98 30   LegendNANA
14:00 26.8 15.5 50 0.0       98.95 31   LegendNANA
15:00 27.6 12.9 40 0.0       98.97 30   LegendNANA
16:00 27.6 11.6 37 0.0       98.95 30   LegendNANA
17:00 26.8 13.3 44 0.0       98.99 30   LegendNANA
18:00 25.8 13.4 46 0.0       99.04 29   LegendNANA
19:00 23.8 12.9 50 0.0       99.13 27   LegendNANA
20:00 23.0 13.1 54 0.0       99.19 26   LegendNANA
21:00 20.8 13.4 63 0.0       99.25     LegendNANA
22:00 19.7 14.0 70 0.0       99.32     LegendNANA
23:00 18.9 13.3 70 0.0       99.38     LegendNANA

Notes on Data Quality.

Legend

  • E = Estimated
  • M = Missing
  • NA = Not Available*
  • [empty] = Indicates an unobserved value
Date modified: